Location: Choisy
(48.7685°N, 2.4187°E)
Time: 21:57:09
(UTC+00:00)

Cosmos 2322 Rocket - Pass Details

Date: 24 October 2021
Orbit: 832 x 851 km, 71.0° (Epoch: 05 December)

Event Time Altitude Azimuth Distance (km) Brightness Sun altitude
Rises 19:47:57 0° 243° (WSW) 3,370 5.9 -30.8°
Reaches altitude 10° 19:50:42 10° 254° (WSW) 2,441 5.2 -31.2°
Maximum altitude 19:55:31 29° 314° (NW) 1,505 3.9 -31.9°
Enters shadow 19:59:59 12° 11° (N) 2,343 4.6 -32.6°
